Location: Unspecified
(34.1750°S, 150.8048°E)
Time: 21:20:45
(UTC+11:00)

ISS - Visible Passes

Search period start: 09 December 2025 00:00
Search period end: 19 December 2025 00:00
Orbit: 416 x 421 km, 51.6° (Epoch: 08 December)

Date Brightness Start Highest point End Pass type
(mag) Time Alt. Az. Time Alt. Az. Time Alt. Az.
09 Dec -0.2 02:49:08 10° S 02:50:47 13° SSE 02:52:26 10° ESE visible
09 Dec -3.8 04:24:34 10° SW 04:27:59 86° NW 04:31:22 10° NE visible
09 Dec -1.8 21:05:06 10° WNW 21:08:12 33° SW 21:11:21 10° SSE visible
10 Dec -2.8 03:36:47 10° SW 03:40:07 49° SE 03:43:26 10° ENE visible
11 Dec -1.7 02:49:09 10° SSW 02:52:11 28° SE 02:55:11 10° E visible
11 Dec -2.6 04:26:06 10° WSW 04:28:52 23° NW 04:31:36 10° N visible
11 Dec -0.5 21:07:34 10° WSW 21:09:31 14° SSW 21:11:29 10° S visible
12 Dec -0.5 02:01:39 10° SSW 02:02:22 13° S 02:02:22 13° S visible
13 Dec -0.2 01:14:25 10° S 01:14:42 11° S 01:14:42 11° S visible
16 Dec -0.2 00:26:38 10° SSW 00:26:52 11° S 00:26:52 11° S visible
16 Dec -0.5 23:39:20 10° S 23:40:12 12° SSE 23:40:12 12° SSE visible
18 Dec -0.7 23:38:53 10° SSW 23:39:52 16° SSW 23:39:52 16° SSW visible
